Location: Martley
(52.2333°N, 2.3667°W)
Time: 00:12:08
(UTC+00:00)

Okean 3 - Pass Details

Date: 11 December 2019
Orbit: 577 x 601 km, 82.5° (Epoch: 17 January)

Event Time Altitude Azimuth Distance (km) Brightness Sun altitude
Exits shadow 06:08:49 16° 342° (NNW) 1,538 5.3 -17.0°
Maximum altitude 06:12:03 66° 263° (W) 638 3.3 -16.6°
Drops below altitude 10° 06:16:12 10° 181° (S) 1,899 6.2 -16.0°
Sets 06:18:24 0° 179° (S) 2,797 7.2 -15.6°
